ラインムート第1彗星

30P/Reinmuth 1 (2002)

English version
Home page
Updated on December 31, 2013

---------------------------------------------------------------------

・ プロフィール

・ 写真集

・ 軌道要素

Epoch 2003 Jan. 1.0 TT = JDT 2452640.5  
T 2002 Dec. 24.39408 TT                                 Muraoka 
q   1.8775046            (2000.0)            P               Q
n   0.13459444     Peri.   13.28412     -0.68053448     -0.72235616
a   3.7709546      Node   119.75829     +0.65866559     -0.67651466
e   0.5021142      Incl.    8.13051     +0.32098671     -0.14328116
P   7.32
From 183 observations 1957-1996, mean residual 0".90.
Nongravitational
   parameters A1 = +0.25 +/- 0.02, A2 = -0.0154 +/- 0.0003.

・ 星図

・ 光度変化

        m1 = 11.0 + 5 logΔ + 12.0 log r  [   ,  0]  (              〜2002年12月24日)
        m1 = 25.2 + 5 logΔ - 40   log r  [  0, 70]  (2002年12月24日〜2003年 3月 4日)
        m1 =  1.5 + 5 logΔ + 40   log r  [ 70,130]  (2003年 3月 4日〜2003年 5月 3日)
        m1 = 11.0 + 5 logΔ + 12.0 log r  [130,   ]  (2003年 5月 3日〜              )

        ※ 灰色の曲線は、m1 = 11.0 + 5 logΔ + 12.0 log r の光度曲線です。

---------------------------------------------------------------------

軌道要素は村岡健治氏の計算によるものです。
星図は StellaNavigator Ver.2.0 for Windows (アストロアーツ 編著 / アスキー出版局刊) で作成したものです。
光度グラフはComet for Windowsで作成したものです。

---------------------------------------------------------------------

Copyright(C) Seiichi Yoshida (comet@aerith.net). All rights reserved.